This is the latest recevied weather packets stored in our database for station/object KC5CAM-13. If no packets are shown the sender has not sent any weather packets the latest 10 day(s).
| Time | Temp. | Humidity | Pressure | Rain* | Wind** | Luminosity | Snow |
|---|---|---|---|---|---|---|---|
| 1777470540 | 15.56° C | 80% | 1017 hPa | 0 mm | - | 35 W/m² | - |
| 1777470236 | 15.56° C | 79% | 1016.8 hPa | 0 mm | - | 36 W/m² | - |
| 1777469932 | 15.56° C | 79% | 1016.9 hPa | 0 mm | - | 32 W/m² | - |
| 1777469628 | 15.56° C | 79% | 1017 hPa | 0 mm | - | 39 W/m² | - |
| 1777469324 | 15.56° C | 79% | 1017 hPa | 0 mm | - | 17 W/m² | - |
| 1777469019 | 15.56° C | 79% | 1016.9 hPa | 0 mm | - | 18 W/m² | - |
| 1777468714 | 15.56° C | 79% | 1016.4 hPa | 0 mm | - | 23 W/m² | - |
| 1777468411 | 15.56° C | 79% | 1016.4 hPa | 0 mm | - | 20 W/m² | - |
| 1777468107 | 15.56° C | 78% | 1016.5 hPa | 0 mm | - | 16 W/m² | - |
| 1777467804 | 15.56° C | 78% | 1016.6 hPa | 0 mm | - | 12 W/m² | - |
| 1777467499 | 15.56° C | 78% | 1016.8 hPa | 0 mm | - | 8 W/m² | - |
| 1777467194 | 15.56° C | 78% | 1016.5 hPa | 0 mm | - | 8 W/m² | - |
| 1777466892 | 15.56° C | 79% | 1016.2 hPa | 0 mm | - | 11 W/m² | - |
| 1777466590 | 15.56° C | 78% | 1016.4 hPa | 0 mm | - | 9 W/m² | - |
| 1777466286 | 15.56° C | 79% | 1016.3 hPa | 0 mm | - | 9 W/m² | - |
| 1777465982 | 15.56° C | 79% | 1016.4 hPa | 0 mm | - | 6 W/m² | - |
| 1777465678 | 15.56° C | 79% | 1016.2 hPa | 0 mm | - | 6 W/m² | - |
| 1777465374 | 15.56° C | 79% | 1016.1 hPa | 0 mm | - | 5 W/m² | - |
| 1777465072 | 15.56° C | 79% | 1016.1 hPa | 0 mm | - | 5 W/m² | - |
| 1777464768 | 15.56° C | 80% | 1015.7 hPa | 0 mm | - | 5 W/m² | - |
| 1777464464 | 15.56° C | 80% | 1015.8 hPa | 0 mm | - | 3 W/m² | - |
| 1777464160 | 15.56° C | 80% | 1015.8 hPa | 0 mm | - | 3 W/m² | - |
| 1777463860 | 15.56° C | 80% | 1015.8 hPa | 0 mm | - | 0 W/m² | - |
| 1777463556 | 15.56° C | 80% | 1015.7 hPa | 0 mm | - | 0 W/m² | - |
| 1777463251 | 15.56° C | 80% | 1015.6 hPa | 0 mm | - | 0 W/m² | - |
* Rain latest hour (hover to see other rain measurements)
** Current wind speed in m/s (hover to see current wind gust speed)